Location: Kuppenheim
(48.8299°N, 8.2568°E)
Time: 09:19:59
(UTC+00:00)

OE (NEXTSAT) - Visible Passes

Search period start: 28 October 2021 00:00
Search period end: 07 November 2021 00:00
Orbit: 421 x 429 km, 46.0° (Epoch: 27 October)

Date Brightness Start Highest point End Pass type
(mag) Time Alt. Az. Time Alt. Az. Time Alt. Az.
28 Oct 4.8 17:44:01 10° W 17:47:22 50° S 17:48:34 32° SE visible
28 Oct 7.7 19:21:32 10° W 19:21:37 11° W 19:21:37 11° W visible
29 Oct 4.8 16:57:44 10° W 17:01:05 53° S 17:04:19 11° ESE visible
29 Oct 6.1 18:35:07 10° W 18:37:22 27° SW 18:37:22 27° SW visible
30 Oct 5.4 17:48:44 10° W 17:51:55 36° SSW 17:53:09 26° SSE visible
31 Oct 5.3 17:02:22 10° W 17:05:38 42° SSW 17:08:53 10° ESE visible
31 Oct 6.9 18:40:16 10° WSW 18:42:02 16° SW 18:42:02 16° SW visible
01 Nov 6.5 17:53:37 10° WSW 17:56:17 21° SSW 17:57:58 15° SSE visible
02 Nov 6.2 17:07:05 10° W 17:10:01 26° SSW 17:12:56 10° SE visible
04 Nov 7.2 17:12:22 10° WSW 17:14:11 14° SSW 17:15:58 10° S visible
